Content
SEND FEEDBACK

Daily
Averages
Monthly
Summary
United States of America

NEW LIMERICK, MAINE


Home > North America > United States > Maine
Elevation: 606 feet     Latitude: 46 07N     Longitude: 067 47W

WEATHER
 
SELECT A DAY
Number of Records: 178,651;   Date Range: 1/1/95 - 12/18/14
 
SHARE

PRINT THIS DATA

[ ← Previous Day ]
WEATHER ALMANAC - JANUARY 31, 2013
[ Next Day → ]
[ °C ]   °F
Weather ElementAverageHighLow
Temperature47.4 °F54 °F (8:53 am)23 °F (11:53 pm)
Dewpoint43 °F51.8 °F (6:53 am)6.1 °F (11:53 pm)
Humidity85.6 %96 % (12:53 am)48 % (11:53 pm)
Barometer28.99 in29.32 in (12:20 am)28.64 in (12:20 pm)
Wind Speed14.2 mph23 mph (9:29 am)
Wind Gust42.6 mph (12:53 pm)
Weather ElementAverage
Visibility5.2 mi
Wind DirectionSSW (204.1 °)

Weather ElementTotal
Precipitation1.90 in
Heating Degree Days26.5 (Base 65)
Averaged from 54 records on January 31, 2013
WEATHER CONDITIONS BREAKOUT
WIND DIRECTION BREAKOUT
WEATHER BY HOUR - JANUARY 31, 2013
[ °C ]   °F
Local TimeTemperatureDewpointHumidityBarometerVisibilityWind DirectionWind SpeedGust SpeedPrecipitationEventsConditions
12:20 AM50.0 °F48.2 °F94 %29.32 in2.0 miSouth (190°)11.5 mphOvercast
12:39 AM50.0 °F48.2 °F94 %29.31 in1.8 miSouth (190°)11.5 mph19.6 mphOvercast
12:53 AM50.0 °F48.9 °F96 %29.31 in1.8 miSouth (190°)10.4 mph18.4 mphOvercast
1:33 AM51.8 °F48.2 °F88 %29.28 in2.0 miSSW (200°)11.5 mph24.2 mph0.01 inOvercast
1:53 AM51.1 °F48.9 °F92 %29.30 in2.0 miSSW (200°)11.5 mph19.6 mph0.01 inOvercast
2:41 AM51.8 °F50.0 °F94 %29.25 in3.0 miSouth (190°)10.4 mph21.9 mphOvercast
2:48 AM51.8 °F50.0 °F94 %29.26 in2.5 miSSW (200°)12.7 mph20.7 mphOvercast
2:53 AM51.1 °F50.0 °F96 %29.26 in2.5 miSouth (190°)11.5 mph21.9 mphOvercast
3:01 AM51.8 °F50.0 °F94 %29.24 in2.0 miSouth (190°)10.4 mph21.9 mphOvercast
3:40 AM51.8 °F48.2 °F88 %29.21 in6.0 miSouth (180°)9.2 mph16.1 mph0.02 inRainLight Rain
3:53 AM50.0 °F48.9 °F96 %29.21 in4.0 miSouth (170°)5.8 mph0.03 inRainLight Rain
4:11 AM50.0 °F48.2 °F94 %29.19 in3.0 miSouth (170°)9.2 mph0.01 inRainLight Rain
4:24 AM50.0 °F48.2 °F94 %29.17 in2.0 miSouth (180°)10.4 mph17.3 mph0.03 inRainLight Rain
4:35 AM50.0 °F48.2 °F94 %29.15 in4.0 miSouth (170°)9.2 mph17.3 mph0.04 inRainLight Rain
4:42 AM50.0 °F48.2 °F94 %29.15 in5.0 miSouth (180°)10.4 mph18.4 mph0.04 inRainLight Rain
4:53 AM51.1 °F48.9 °F92 %29.15 in4.0 miSouth (170°)11.5 mph24.2 mph0.07 inRainRain
5:22 AM51.8 °F48.2 °F88 %29.09 in7.0 miSouth (180°)12.7 mph27.6 mph0.05 inRainLight Rain
5:48 AM51.8 °F48.2 °F88 %29.07 in10.0 miSouth (180°)13.8 mph25.3 mph0.07 inRainLight Rain
5:53 AM51.8 °F48.2 °F88 %29.06 in10.0 miSouth (180°)12.7 mph25.3 mphRainLight Rain
6:53 AM53.6 °F51.8 °F94 %29.02 in3.0 miSouth (190°)15.0 mph28.8 mphRainRain
7:33 AM53.6 °F51.8 °F94 %28.98 in2.5 miSouth (180°)12.7 mph33.4 mph0.09 inRainLight Rain
7:40 AM53.6 °F51.8 °F94 %28.97 in5.0 miSouth (180°)16.1 mph24.2 mph0.10 inRainLight Rain
7:53 AM53.1 °F51.1 °F93 %28.96 in3.0 miSouth (170°)15.0 mph25.3 mph0.12 inRainLight Rain
8:53 AM54.0 °F51.1 °F90 %28.87 in5.0 miSouth (170°)15.0 mph28.8 mph0.06 inRainLight Rain
9:11 AM53.6 °F51.8 °F94 %28.84 in3.0 miSouth (170°)18.4 mph29.9 mph0.04 inRainRain
9:29 AM53.6 °F51.8 °F94 %28.83 in5.0 miSouth (180°)23.0 mph35.7 mph0.05 inRainLight Rain
9:53 AM53.1 °F51.1 °F93 %28.82 in1.8 miSouth (180°)15.0 mph35.7 mph0.07 inRainLight Rain
10:02 AM53.6 °F51.8 °F94 %28.81 in2.0 miSouth (180°)15.0 mph27.6 mph0.01 inRainLight Rain
10:08 AM53.6 °F50.0 °F88 %28.81 in4.0 miSouth (190°)18.4 mph31.1 mph0.01 inRainLight Rain
10:15 AM53.6 °F50.0 °F88 %28.81 in8.0 miSouth (190°)18.4 mph31.1 mph0.01 inRainLight Rain
10:43 AM53.6 °F51.8 °F94 %28.79 in10.0 miSouth (190°)15.0 mph26.5 mph0.01 inRainLight Rain
10:53 AM54.0 °F51.1 °F90 %28.78 in10.0 miSouth (180°)11.5 mph21.9 mph0.01 inOvercast
11:32 AM53.6 °F50.0 °F88 %28.71 in10.0 miSouth (180°)12.7 mph26.5 mph0.00 inOvercast
11:53 AM53.1 °F50.0 °F89 %28.68 in8.0 miSouth (180°)17.3 mph26.5 mph0.00 inRainLight Rain
12:12 PM51.8 °F50.0 °F94 %28.65 in2.0 miSouth (190°)15.0 mph24.2 mph0.03 inRainLight Rain
12:14 PM51.8 °F50.0 °F94 %28.65 in1.5 miSouth (190°)11.5 mph24.2 mph0.05 inRainRain
12:20 PM51.8 °F50.0 °F94 %28.64 in0.8 miSouth (190°)17.3 mph25.3 mph0.11 inRainHeavy Rain
12:27 PM51.8 °F50.0 °F94 %28.64 in1.0 miSSW (200°)11.5 mph26.5 mph0.14 inRainRain
12:35 PM51.8 °F48.2 °F88 %28.64 in1.0 miSSW (200°)11.5 mph23.0 mph0.17 inRainRain
12:53 PM46.0 °F42.1 °F86 %28.73 in1.0 miWest (280°)19.6 mph42.6 mph0.27 inRainHeavy Rain
1:02 PM42.8 °F39.2 °F87 %28.71 in1.5 miWest (270°)16.1 mph24.2 mph0.03 inRainLight Rain
1:07 PM42.8 °F39.2 °F87 %28.72 in3.0 miWest (270°)23.0 mph32.2 mph0.04 inRainLight Rain
1:53 PM37.9 °F33.1 °F83 %28.80 in5.0 miWest (270°)18.4 mph31.1 mph0.08 inRainLight Rain
2:40 PM39.2 °F33.8 °F81 %28.84 in10.0 miWSW (240°)13.8 mph27.6 mph0.01 inMostly Cloudy
2:53 PM39.0 °F30.9 °F73 %28.86 in10.0 miWSW (250°)16.1 mph38.0 mph0.01 inScattered Clouds
3:53 PM37.0 °F28.9 °F73 %28.92 in10.0 miWest (270°)15.0 mph23.0 mphMostly Cloudy
4:53 PM35.1 °F26.1 °F70 %28.98 in10.0 miWSW (250°)19.6 mph26.5 mphOvercast
5:53 PM35.1 °F24.1 °F64 %29.02 in10.0 miSW (230°)16.1 mph25.3 mph0.00 inOvercast
6:53 PM33.1 °F18.0 °F54 %29.06 in10.0 miWSW (240°)13.8 mph26.5 mphOvercast
7:53 PM32.0 °F17.1 °F54 %29.09 in10.0 miWSW (250°)15.0 mph25.3 mphOvercast
8:53 PM30.9 °F15.1 °F52 %29.11 in10.0 miWSW (240°)17.3 mph29.9 mphMostly Cloudy
9:53 PM28.9 °F12.9 °F51 %29.13 in10.0 miWest (260°)16.1 mph28.8 mphOvercast
10:53 PM27.0 °F15.1 °F61 %29.17 in9.0 miWest (260°)15.0 mph28.8 mph0.00 inOvercast
11:53 PM23.0 °F6.1 °F48 %29.23 in10.0 miWest (260°)21.9 mph32.2 mph0.00 inMostly Cloudy
Hourly data recorded from KHUL, located miles away from New Limerick, Maine







STORIES FROM OUR PARTNERS